Regional Weather Roundup
Issued by NWS Cleveland, OH

Home | Current Version | Previous Version | Text Only | Print | Product List | Glossary Off
Versions: 1 2 3 4 5 6 7 8 9 10 11 12 13 14 15 16 17 18 19 20 21 22 23 24 25 26 27 28 29 30 31 32 33 34 35 36 37 38 39 40 41 42 43 44 45 46 47 48 49 50

000
ASUS41 KCLE 241710
RWRCLE
OHIO REGIONAL WEATHER ROUNDUP
NATIONAL WEATHER SERVICE WILMINGTON, OH
100 PM EDT FRI OCT 24 2014

NOTE: "FAIR" INDICATES FEW OR NO CLOUDS BELOW 12,000 FEET WITH NO
SIGNIFICANT WEATHER AND/OR OBSTRUCTIONS TO VISIBILITY.

OHZ001>008-015>018-024>027-034-035-043-044-241800-
   NORTHWEST OHIO

CITY           SKY/WX    TMP DP  RH WIND       PRES   REMARKS
DEFIANCE       CLOUDY    57  45  64 W6        30.08F
FINDLAY        CLOUDY    60  42  51 W6        30.07F
TOLEDO EXPRESS PTSUNNY   60  42  51 SW7       30.06F
TOLEDO METCALF SUNNY     60  42  51 SW6       30.06F
LIMA           SUNNY     60  44  55 S8        30.08F
$$

OHZ009>014-019>023-028>033-038-089-241800-
   NORTHEAST OHIO

CITY           SKY/WX    TMP DP  RH WIND       PRES   REMARKS
CLE-HOPKINS    MOSUNNY   57  41  55 VRB3      30.10F
CLE-LAKEFRONT  SUNNY     56  44  64 W7        30.07F
CUY CO. ARPT   PTSUNNY   59  45  58 NW10G20   30.07F
LORAIN-ELYRIA  SUNNY     57  40  52 SW7       30.08F
ASHTABULA      PTSUNNY   56  44  64 W12       30.07S
AKRON-CANTON   MOSUNNY   58  40  51 NW9       30.08F
WOOSTER        SUNNY     58  39  49 VRB3      30.08F
MANSFIELD      SUNNY     59  39  47 VRB6      30.08F
YOUNGSTOWN     PTSUNNY   56  41  57 W9        30.06F
$$

OHZ042-051>053-060>062-070>072-077>081-241800-
  SOUTHWEST OHIO

CITY           SKY/WX    TMP DP  RH WIND       PRES   REMARKS
CINC-COVINGTON SUNNY     61  40  45 W5        30.10F
CINC-LUNKEN    SUNNY     61  45  55 CALM      30.12F
HAMILTON       SUNNY     63  42  46 VRB3      30.11F
DAYTON         MOSUNNY   62  42  47 SW7       30.09F
WRIGHT-PAT AFB SUNNY     60  42  50 VRB6      30.10F
DAYTON GENERAL SUNNY     59  40  49 SW7       30.10F
WILMINGTON     SUNNY     60  39  45 W7        30.10F
$$

OHZ036-037-039>041-045>050-054>059-063>069-073>076-082>088-241800-
  CENTRAL AND SOUTHEAST OHIO

CITY           SKY/WX    TMP DP  RH WIND       PRES   REMARKS
COLUMBUS       MOSUNNY   59  40  49 W5        30.09F
OSU AIRPORT    SUNNY     59  41  51 SW6       30.09F
BOLTON FIELD   SUNNY     59  43  55 W5        30.10F
RICKENBACK AFB SUNNY     58  43  56 S5        30.09F
NEWARK         SUNNY     60  40  47 SW8       30.08F
MARION         SUNNY     58  40  51 W7        30.09F
LANCASTER      SUNNY     60  42  51 VRB6      30.10F
ZANESVILLE     SUNNY     58  41  53 MISG      30.09F
NEW PHILLY     SUNNY     59  41  51 W7        30.09F
$$



USA.gov is the U.S. government's official web portal to all federal, state and local government web resources and services.